Regional Weather Roundup
Issued by NWS

Home | Current Version | Previous Version | Text Only | Print | Product List | Glossary On
Versions: 1 2 3 4 5 6 7 8 9 10 11 12 13 14 15 16 17 18 19 20 21 22 23 24 25 26 27 28 29 30 31 32 33 34 35 36 37 38 39 40 41 42 43 44 45 46 47 48 49 50
000
ASUS43 KMPX 211901
RWRMN
WEATHER ROUNDUP FOR MINNESOTA
NATIONAL WEATHER SERVICE TWIN CITIES/CHANHASSEN MN
200 PM CDT SAT OCT 21 2017


NOTE: "FAIR" INDICATES FEW OR NO CLOUDS BELOW 12,000 FEET WITH NO
SIGNIFICANT WEATHER AND/OR OBSTRUCTIONS TO VISIBILITY. N/A MEANS
CURRENT SKY AND/OR WEATHER CONDITIONS ARE NOT AVAILABLE.

MNZ060>063-068>070-212000-
   Twin Cities Metro

CITY           SKY/WX    TMP DP  RH WIND       PRES   REMARKS
TWIN CITIES    CLOUDY    66  62  87 S20G26    29.67S
ST PAUL        CLOUDY    66  61  84 S18G31    29.68S
CRYSTAL        CLOUDY    66  58  75 S16G25    29.64S
BLAINE         CLOUDY    66  63  88 S18       29.65F
LAKEVILLE      CLOUDY    63  61  94 S13G21    29.68S
EDEN PRAIRIE   CLOUDY    66  61  84 S17G28    29.64F
SOUTH ST PAUL  CLOUDY    66  61  85 S13G22    29.68S
LAKE ELMO      CLOUDY    64  61  88 S16G28    29.70S
$$
MNZ001>005-007-008-013>017-022>024-027-028-212000-
   Northwest Minnesota

CITY           SKY/WX    TMP DP  RH WIND       PRES   REMARKS
BEMIDJI        CLOUDY    63  57  82 S12       29.51S
HALLOCK        MOSUNNY   66  41  39 SW14      29.42F
ROSEAU         CLOUDY    63  57  82 S17G25    29.45S
WARROAD        CLOUDY    66  61  82 S14G21    29.45S
CROOKSTON      PTSUNNY   63  43  48 W10       29.48S
FOSSTON        CLOUDY    55  48  76 SW7       29.51R
DETROIT LAKES  LGT RAIN  52  50  93 NW8       29.53R
MOORHEAD       CLOUDY    59  45  58 W3        29.52R
PARK RAPIDS    CLOUDY    63  59  87 S16G25    29.52F
MAHNOMEN       DRIZZLE   55  50  83 SW6       29.51R
$$
MNZ006-009>011-018-025>026-212000-
   North Central Minnesota

CITY           SKY/WX    TMP DP  RH WIND       PRES   REMARKS
BAUDETTE       CLOUDY    64  57  78 S16G24    29.47F
FLAG ISLAND    CLOUDY    55  52  88 SE16      29.43S
INTL FALLS     CLOUDY    64  55  72 S14G25    29.53F
WASKISH        CLOUDY    64  57  77 S12G20    29.50F
BIG FORK       CLOUDY    61  55  82 S13G21    29.56F
LONGVILLE      CLOUDY    61  57  88 S17       29.55F
GRAND RAPIDS   CLOUDY    59  58  96 S15       29.60F
CRANE LAKE     CLOUDY    63  55  77 S9G16     29.59F
ORR            CLOUDY    61  54  77 S15G21    29.56F
COOK           CLOUDY    61  55  82 S20       29.60S
WALKER         CLOUDY    59  58  94 SE10G17   29.53F FOG
$$
MNZ012-019>021-037-212000-
   Northeast Minnesota

CITY           SKY/WX    TMP DP  RH WIND       PRES   REMARKS
DULUTH         LGT RAIN  58  58 100 S17G25    29.66F FOG
ELY            CLOUDY    61  54  77 S9G18     29.63F
HIBBING        CLOUDY    58  57  97 S14G22    29.61F
EVELETH        CLOUDY    59  59  99 S13       29.64S
DULUTH HARBOR  CLOUDY    59  57  94 S13G22    29.67F
TWO HARBORS    CLOUDY    61  55  82 S9        29.67S
SILVER BAY     LGT RAIN  59  57  94 S10G16    29.67F
GRAND MARAIS     N/A     56  55  97 CALM      29.72S
G MARAIS ARPRT DRIZZLE   54  50  87 S7        29.74S
$$
MNZ029>031-032-039>041-046>048-054>057-064-212000-
   West Central Minnesota

CITY           SKY/WX    TMP DP  RH WIND       PRES   REMARKS
FERGUS FALLS   CLOUDY    55  46  71 NW7       29.53S
WHEATON        CLOUDY    55  46  71 W14       29.58R
MORRIS         PTSUNNY   57  48  72 NW15      29.53R
ALEXANDRIA     CLOUDY    68  62  81 S14       29.52F
ELBOW LAKE     DRIZZLE   54  50  87 NW6       29.54R
WADENA         CLOUDY    64  59  82 S16G22    29.52S
GLENWOOD       SUNNY     68  63  83 SE14      29.53F
APPLETON       PTSUNNY   61  46  59 NW21      29.54R
BENSON         CLOUDY    73  61  64 SW17G23   29.52F
ORTONVILLE     CLOUDY    55  46  71 W20       29.58R
MADISON        PTSUNNY   63  48  59 W18G28    29.57R
WILLMAR        PTSUNNY   72  63  73 S9G20     29.56S
$$
MNZ033>034-036-042>043-049>051-058-059-212000-
   Central Minnesota

CITY           SKY/WX    TMP DP  RH WIND       PRES   REMARKS
ST CLOUD       CLOUDY    63  62  97 S16       29.60F
SAUK CENTRE    CLOUDY    67  61  80 S18G26    29.55F
PAYNESVILLE    CLOUDY    67  62  83 S16G24    29.58F
AITKIN         CLOUDY    57  55  94 S15G22    29.58F FOG
PINE RIVER     CLOUDY    57  55  94 S12G18    29.60F FOG
BRAINERD       CLOUDY    61  59  93 S14G24    29.58F FOG
STAPLES        LGT RAIN  63  57  82 S10       29.54F
LONG PRAIRIE   CLOUDY    63  59  88 SE15      29.55F
LITTLE FALLS   CLOUDY    63  55  77 SE13G20   29.58F
LITCHFIELD     CLOUDY    66  63  88 S6        29.60S
BUFFALO        CLOUDY    65  60  82 S10G21    29.64S
MAPLE LAKE     CLOUDY    66  62  89 S10G17    29.62F
HUTCHINSON     CLOUDY    67  63  86 SE12G22   29.62S
$$
MNZ037-044-045-052-053-212000-
   East Central Minnesota

CITY           SKY/WX    TMP DP  RH WIND       PRES   REMARKS
PRINCETON      CLOUDY    64  61  88 SE9G16    29.63S
MORA           CLOUDY    59  59 100 S10G18    29.66S
CAMBRIDGE      CLOUDY    64  63  94 SE9       29.65S
RUSH CITY      CLOUDY    61  58  89 S10G17    29.67S
MOOSE LAKE     CLOUDY    59  57  94 S12G18    29.63F FOG
HINCKLEY       CLOUDY    61  59  94 S14G20    29.66F
CLOQUET        CLOUDY    61  57  88 S10       29.66S FOG
MCGREGOR       CLOUDY    59  59 100 S16G22    29.62F
$$
MNZ071>073-080-081-089-090-097-098-212000-
   Southwest Minnesota

CITY           SKY/WX    TMP DP  RH WIND       PRES   REMARKS
MONTEVIDEO     CLOUDY    73  61  64 W13G24    29.53R
GRANITE FALLS  PTSUNNY   75  63  67 S18G28    29.54F
CANBY          CLOUDY    59  47  64 NW24      29.60R
MARSHALL       TSTM      63  60  90 W18G25    29.55R
REDWOOD FALLS  CLOUDY    72  61  68 S25G33    29.56F
OLIVIA         CLOUDY    72  63  73 S18G26    29.55F
PIPESTONE      CLOUDY    55  45  67 NW20G31   29.63R
WORTHINGTON    PTSUNNY   70  62  76 S20G29    29.59F
JACKSON        CLOUDY    64  61  88 S17G23    29.64F
TRACY          PTSUNNY   72  64  75 S13G23    29.56F
SLAYTON        RAIN      65  60  83 W13G28    29.59R
$$
MNZ065>067-074>077-082>085-091>093-212000-
   South Central Minnesota

CITY           SKY/WX    TMP DP  RH WIND       PRES   REMARKS
MANKATO        CLOUDY    66  61  84 S17G26    29.66S
NEW ULM        PTSUNNY   68  61  77 S22G35    29.61S
ST JAMES       PTSUNNY   66  61  82 SE20G30   29.64F
FAIRMONT       CLOUDY    66  61  84 S23G31    29.65F
GLENCOE        CLOUDY    67  67 100 S10G20    29.62S
FARIBAULT      CLOUDY    64  61  88 S16G24    29.70S
OWATONNA       PTSUNNY   64  61  88 S17G29    29.71S
WASECA         CLOUDY    63  59  88 S20G25    29.72R
$$
MNZ078>079-086>088-094>096-212000-
   Southeast Minnesota

CITY           SKY/WX    TMP DP  RH WIND       PRES   REMARKS
ROCHESTER      CLOUDY    64  58  80 S22G31    29.77F
RED WING       CLOUDY    70  57  64 S14G20    29.71F
STANTON        CLOUDY    66  60  80 S13G22    29.70S
DODGE CENTER   PTSUNNY   64  57  77 S26G35    29.74S
WINONA         CLOUDY    70  59  68 S8        29.80S
AUSTIN         CLOUDY    63  57  82 S13G22    29.75F
PRESTON        CLOUDY    65  57  77 S17G25    29.80F
$$
ABBREVIATIONS USED IN REMARKS
   TC - TEMPERATURES IN CELSIUS
  WCI - WIND CHILL INDEX
   HX - HEAT INDEX
  VSB - VISIBILITY
$$




USA.gov is the U.S. government's official web portal to all federal, state and local government web resources and services.